Location: Guayaquil
(2.1667°S, 79.9000°W)
Time: 09:47:24
(UTC-05:00)

Envisat - Pass Details

Date: 07 August 2020
Orbit: 764 x 766 km, 98.1° (Epoch: 23 September)

Event Time Altitude Azimuth Distance (km) Brightness Sun altitude
Rises 05:42:26 0° 23° (NNE) 3,214 6.8 -10.9°
Reaches altitude 10° 05:44:48 10° 29° (NNE) 2,291 6.2 -10.3°
Maximum altitude 05:49:38 47° 102° (ESE) 1,007 4.1 -9.2°
Drops below altitude 10° 05:54:29 10° 175° (S) 2,301 5.4 -8.0°
Sets 05:56:52 0° 181° (S) 3,229 6.1 -7.4°
